Enid, OK

2:02 PM CDT on September 25, 2017 (GMT -0500)
Enid Woodring Municipal

Weather History for KWDG - March, 2013

Change the Weather History Date:

Saturday, March 23, 2013

  Actual Average Record
Temperature  
Mean Temperature 36 °F -  
Max Temperature 39 °F 60 °F 84 °F (2017)
Min Temperature 33 °F 41 °F 26 °F (2002)
Degree Days  
Heating Degree Days 29    
Moisture  
Dew Point 35 °F    
Average Humidity 95    
Maximum Humidity 100    
Minimum Humidity 93    
Precipitation  
Precipitation 0.01 in - - ()
Sea Level Pressure  
Sea Level Pressure 29.85 in    
Wind  
Wind Speed 11 mph (NNE)    
Max Wind Speed 17 mph    
Max Gust Speed 30 mph    
Visibility 5 miles    
Events Snow , Thunderstorm    
Averages and records for this station are not official NWS values.
T = Trace of Precipitation, MM = Missing Value Source: NWS Daily Summary

Daily Weather History Graph

Daily Weather History Graph

Search for Another Location

Airport or City:

Trip Planner

Search our weather history database for the weather conditions in past years. The results will help you decide how hot, cold, wet, or windy it might be!

Date:

Astronomy

Mar. 23, 2013 Rise Set
Actual Time 7:29 AM CDT 7:45 PM CDT
Civil Twilight 7:04 AM CDT 8:11 PM CDT
Nautical Twilight 6:34 AM CDT 8:41 PM CDT
Astronomical Twilight 6:03 AM CDT 9:12 PM CDT
Moon 4:19 PM CDT (3/23) 5:01 AM CDT (3/23)
Length of Visible Light 13h 07m
Length of Day
12h 15m
Waxing Gibbous, 85% of the Moon is Illuminated
Mar 23
Waxing Gibbous
Mar 27
Full
Apr 2
Last Quarter
Apr 10
New
Apr 18
First Quarter

Hourly Weather History & Observations

Time (CDT) Temp. Windchill Dew Point Humidity Pressure Visibility Wind Dir Wind Speed Gust Speed Precip Events Conditions
12:15 AM 37.4 °F 30.8 °F 35.6 °F 93% 29.90 in 7.0 mi ENE 9.2 mph - N/A   Scattered Clouds
12:55 AM 35.6 °F 28.6 °F 33.8 °F 93% 29.88 in 7.0 mi ENE 9.2 mph - N/A   Scattered Clouds
1:15 AM 35.6 °F 28.6 °F 33.8 °F 93% 29.87 in 7.0 mi NE 9.2 mph - N/A   Mostly Cloudy
1:35 AM 35.6 °F 29.2 °F 33.8 °F 93% 29.88 in 7.0 mi NE 8.1 mph - N/A   Overcast
1:55 AM 37.4 °F 30.3 °F 35.6 °F 93% 29.87 in 7.0 mi NE 10.4 mph - N/A   Overcast
2:15 AM 37.4 °F 30.3 °F 35.6 °F 93% 29.87 in 7.0 mi NE 10.4 mph - N/A   Overcast
2:35 AM 37.4 °F 29.8 °F 35.6 °F 93% 29.87 in 7.0 mi ENE 11.5 mph - N/A   Overcast
2:55 AM 37.4 °F 29.3 °F 35.6 °F 93% 29.85 in 7.0 mi NE 12.7 mph - N/A   Overcast
3:15 AM 37.4 °F 28.9 °F 35.6 °F 93% 29.85 in 7.0 mi NE 13.8 mph - N/A   Overcast
3:35 AM 37.4 °F 30.3 °F 35.6 °F 93% 29.85 in 7.0 mi NNE 10.4 mph - N/A   Overcast
3:55 AM 37.4 °F 29.3 °F 35.6 °F 93% 29.84 in 5.0 mi NE 12.7 mph - N/A   Overcast
4:15 AM 37.4 °F 29.3 °F 35.6 °F 93% 29.83 in 5.0 mi NE 12.7 mph - N/A   Overcast
4:35 AM 37.4 °F 29.8 °F 35.6 °F 93% 29.84 in 4.0 mi NE 11.5 mph - N/A   Overcast
4:55 AM 35.6 °F 28.6 °F 35.6 °F 100% 29.84 in 4.0 mi NE 9.2 mph - N/A   Overcast
5:15 AM 35.6 °F 29.2 °F 35.6 °F 100% 29.85 in 4.0 mi NE 8.1 mph - N/A   Overcast
5:35 AM 35.6 °F 28.6 °F 35.6 °F 100% 29.85 in 3.0 mi ENE 9.2 mph - N/A   Overcast
5:55 AM 35.6 °F 29.2 °F 35.6 °F 100% 29.85 in 3.0 mi NE 8.1 mph - N/A   Overcast
6:17 AM 37.4 °F 29.3 °F 35.6 °F 93% 29.85 in 3.0 mi NNE 12.7 mph - N/A   Overcast
7:50 AM 37.4 °F 29.8 °F 37.4 °F 100% 29.86 in 2.0 mi NE 11.5 mph - N/A   Overcast
8:50 AM 37.4 °F 29.8 °F 37.4 °F 100% 29.87 in 3.0 mi ENE 11.5 mph - N/A   Overcast
9:50 AM 37.4 °F 29.3 °F 37.4 °F 100% 29.88 in 3.0 mi NE 12.7 mph - N/A   Overcast
11:50 AM 39.2 °F 30.5 °F 39.2 °F 100% 29.86 in 5.0 mi NNE 16.1 mph - N/A   Overcast
12:55 PM 39.2 °F 32.0 °F 37.4 °F 93% 29.86 in 10.0 mi NE 11.5 mph - N/A   Overcast
1:50 PM 39.2 °F 33.0 °F 37.4 °F 93% 29.82 in 10.0 mi NNE 9.2 mph - N/A   Overcast
2:50 PM 39.2 °F 32.0 °F 37.4 °F 93% 29.79 in 7.0 mi NNE 11.5 mph - N/A   Overcast
4:50 PM 39.2 °F 30.2 °F 37.4 °F 93% 29.78 in 3.0 mi North 17.3 mph - N/A   Overcast
5:50 PM 37.4 °F 27.8 °F 37.4 °F 100% 29.80 in 1.8 mi North 17.3 mph - N/A   Overcast
6:50 PM 37.4 °F 27.8 °F 37.4 °F 100% 29.76 in 3.0 mi NNE 17.3 mph - N/A   Overcast
7:50 PM 37.4 °F 27.8 °F 35.6 °F 93% 29.77 in 5.0 mi North 17.3 mph 29.9 mph N/A   Overcast
9:15 PM 35.6 °F 26.2 °F 33.8 °F 93% 29.86 in 7.0 mi North 15.0 mph 23.0 mph N/A   Overcast
9:35 PM 35.6 °F 25.5 °F 33.8 °F 93% 29.84 in 10.0 mi North 17.3 mph 24.2 mph N/A   Overcast
9:55 PM 35.6 °F 27.1 °F 33.8 °F 93% 29.89 in 10.0 mi North 12.7 mph 20.7 mph N/A   Overcast
10:15 PM 35.6 °F 26.2 °F 33.8 °F 93% 29.87 in 7.0 mi North 15.0 mph - N/A   Overcast
10:35 PM 33.8 °F 23.9 °F 33.8 °F 100% 29.87 in 5.0 mi North 15.0 mph - N/A   Light Drizzle
10:55 PM 33.8 °F 24.8 °F 33.8 °F 100% 29.89 in 3.0 mi NNW 12.7 mph - N/A Snow Light Snow
11:15 PM 33.8 °F 24.8 °F 32.0 °F 93% 29.91 in 2.0 mi NW 12.7 mph - N/A Snow , Thunderstorm Light Thunderstorms and Snow
11:35 PM 33.8 °F 25.3 °F 32.0 °F 93% 29.92 in 1.5 mi NW 11.5 mph 18.4 mph N/A Snow Light Snow
11:55 PM 33.8 °F 24.3 °F 32.0 °F 93% 29.91 in 1.8 mi NW 13.8 mph 20.7 mph 0.01 in Snow Light Snow